GW1802 Weather Reports


time (UTC)temp
C
wind
direction
speed
KPH
gust
KPH
rain 1hr
cm
rain 24hr
cm
rain mn
cm
humidity
%
barometer
mb
20260503033809 13 313 3.2 4.8 0.00 0.00 0.00 45 1012.1
20260503033305 13 228 0.0 3.2 0.00 0.00 0.00 44 1011.9
20260503032804 13 216 0.0 3.2 0.00 0.00 0.00 43 1011.9
20260503032304 13 190 1.6 6.4 0.00 0.00 0.00 42 1011.8
20260503031805 14 171 3.2 8.0 0.00 0.00 0.00 43 1011.8
20260503031305 15 165 4.8 8.0 0.00 0.00 0.00 43 1011.8
20260503030802 15 161 6.4 6.4 0.00 0.00 0.00 42 1011.8
20260503030300 15 174 3.2 8.0 0.00 0.00 0.00 42 1011.8
20260503025753 15 153 6.4 9.7 0.00 0.00 0.00 43 1011.9
20260503025249 16 144 8.0 9.7 0.00 0.00 0.00 43 1011.7
20260503024742 16 140 6.4 8.0 0.00 0.00 0.00 41 1011.8
20260503024242 16 136 4.8 8.0 0.00 0.00 0.00 40 1011.7
20260503023739 17 142 6.4 8.0 0.00 0.00 0.00 39 1011.8
20260503023243 17 137 4.8 9.7 0.00 0.00 0.00 39 1011.6
20260503022733 17 144 6.4 11.3 0.00 0.00 0.00 38 1011.6
20260503022230 18 155 8.0 11.3 0.00 0.00 0.00 37 1011.6
20260503021727 18 155 9.7 11.3 0.00 0.00 0.00 37 1011.6
20260503021506 18 154 9.7 11.3 0.00 0.00 0.00 36 1011.6
20260503020734 19 157 8.0 11.3 0.00 0.00 0.00 35 1011.6
20260503020227 19 165 8.0 12.9 0.00 0.00 0.00 34 1011.7
20260503020201 19 161 11.3 14.5 0.00 0.00 0.00 34 1011.7
20260503015221 20 156 11.3 14.5 0.00 0.00 0.00 33 1011.8
20260503014714 20 171 11.3 14.5 0.00 0.00 0.00 32 1011.9
20260503014218 20 144 11.3 14.5 0.00 0.00 0.00 32 1011.9
20260503013709 20 148 9.7 14.5 0.00 0.00 0.00 31 1012.0
20260503013210 21 147 9.7 14.5 0.00 0.00 0.00 30 1012.0
20260503012708 21 159 11.3 14.5 0.00 0.00 0.00 29 1012.0
20260503012205 21 156 11.3 17.7 0.00 0.00 0.00 28 1012.0
20260503011706 21 173 9.7 19.3 0.00 0.00 0.00 28 1012.1
20260503011211 22 171 14.5 19.3 0.00 0.00 0.00 27 1012.1
20260503010710 22 155 14.5 19.3 0.00 0.00 0.00 28 1012.3
20260503010204 22 180 12.9 19.3 0.00 0.00 0.00 27 1012.4
20260503005706 22 170 4.8 16.1 0.00 0.00 0.00 27 1012.4
20260503005201 22 225 4.8 16.1 0.00 0.00 0.00 25 1012.4
20260503004656 22 146 4.8 12.9 0.00 0.00 0.00 25 1012.5
20260503004155 22 133 6.4 12.9 0.00 0.00 0.00 25 1012.6
20260503003653 22 117 3.2 12.9 0.00 0.00 0.00 26 1012.6
20260503003154 22 84 4.8 12.9 0.00 0.00 0.00 27 1012.6
20260503002650 22 109 4.8 11.3 0.00 0.00 0.00 27 1012.6
20260503002154 22 115 3.2 11.3 0.00 0.00 0.00 27 1012.7
20260503001656 22 109 3.2 11.3 0.00 0.00 0.00 27 1012.7
20260503001148 22 39 4.8 12.9 0.00 0.00 0.00 27 1012.9
20260503000642 22 57 6.4 12.9 0.00 0.00 0.00 26 1012.9
20260503000140 22 96 6.4 12.9 0.00 0.00 0.00 27 1012.9
20260502235640 22 80 4.8 11.3 0.00 0.00 0.00 26 1012.9
20260502235138 22 34 4.8 11.3 0.00 0.00 0.00 28 1013.0
20260502234633 22 342 4.8 8.0 0.00 0.00 0.00 28 1013.0
20260502234132 22 165 3.2 19.3 0.00 0.00 0.00 27 1013.0
20260502233628 22 225 4.8 19.3 0.00 0.00 0.00 26 1013.3
20260502233402 22 148 6.4 16.1 0.00 0.00 0.00 26 1013.4
20260502232628 22 149 6.4 24.1 0.00 0.00 0.00 27 1013.4
20260502232122 22 150 11.3 24.1 0.00 0.00 0.00 25 1013.5
20260502231619 22 132 8.0 17.7 0.00 0.00 0.00 26 1013.5
20260502231118 22 270 12.9 17.7 0.00 0.00 0.00 28 1013.7
20260502230618 22 279 6.4 14.5 0.00 0.00 0.00 27 1013.8
20260502230113 22 171 6.4 16.1 0.00 0.00 0.00 27 1013.7
20260502225608 22 216 14.5 16.1 0.00 0.00 0.00 26 1013.8
20260502225102 22 104 9.7 16.1 0.00 0.00 0.00 26 1013.8
20260502224605 22 164 11.3 16.1 0.00 0.00 0.00 26 1013.9
20260502224100 22 170 9.7 20.9 0.00 0.00 0.00 26 1013.9
20260502223600 22 243 14.5 20.9 0.00 0.00 0.00 27 1014.1
20260502223055 22 214 9.7 16.1 0.00 0.00 0.00 26 1014.1
20260502222553 22 200 8.0 19.3 0.00 0.00 0.00 26 1014.4
20260502222322 22 168 8.0 19.3 0.00 0.00 0.00 26 1014.4
20260502221551 23 179 6.4 19.3 0.00 0.00 0.00 27 1014.4
20260502221058 23 159 9.7 19.3 0.00 0.00 0.00 27 1014.4
20260502220814 23 148 8.0 20.9 0.00 0.00 0.00 26 1014.5
20260502220541 22 225 16.1 20.9 0.00 0.00 0.00 27 1014.6
20260502215812 22 211 6.4 20.9 0.00 0.00 0.00 27 1014.7
20260502215047 22 236 12.9 20.9 0.00 0.00 0.00 27 1014.8
20260502214548 22 320 8.0 12.9 0.00 0.00 0.00 29 1014.8
20260502214048 22 185 8.0 14.5 0.00 0.00 0.00 32 1014.8
20260502213816 21 253 8.0 14.5 0.00 0.00 0.00 28 1014.9
20260502213042 21 69 1.6 14.5 0.00 0.00 0.00 27 1015.0
20260502212544 21 92 9.7 17.7 0.00 0.00 0.00 29 1015.0
20260502212042 21 134 12.9 22.5 0.00 0.00 0.00 28 1015.1
20260502211539 22 184 14.5 25.7 0.00 0.00 0.00 28 1015.3
20260502211045 21 256 16.1 25.7 0.00 0.00 0.00 30 1015.4
20260502210540 21 148 14.5 24.1 0.00 0.00 0.00 29 1015.3
20260502210034 21 181 12.9 20.9 0.00 0.00 0.00 30 1015.5
20260502205531 21 148 4.8 16.1 0.00 0.00 0.00 33 1015.6
20260502205031 21 217 8.0 19.3 0.00 0.00 0.00 31 1015.6
20260502204535 20 192 12.9 25.7 0.00 0.00 0.00 31 1015.7
20260502204023 20 246 9.7 25.7 0.00 0.00 0.00 32 1015.7
20260502203516 20 142 9.7 16.1 0.00 0.00 0.00 31 1015.8
20260502203016 20 167 9.7 19.3 0.00 0.00 0.00 31 1015.9
20260502202512 20 179 6.4 19.3 0.00 0.00 0.00 31 1016.0
20260502202007 20 203 12.9 17.7 0.00 0.00 0.00 32 1016.2
20260502201507 20 190 8.0 17.7 0.00 0.00 0.00 31 1016.2
20260502201008 20 179 12.9 17.7 0.00 0.00 0.00 32 1016.4
20260502200736 20 140 9.7 17.7 0.00 0.00 0.00 34 1016.4
20260502200009 20 134 4.8 25.7 0.00 0.00 0.00 33 1016.5
20260502195506 20 219 4.8 25.7 0.00 0.00 0.00 32 1016.7
20260502195003 20 157 9.7 24.1 0.00 0.00 0.00 32 1016.8
20260502194501 20 144 9.7 25.7 0.00 0.00 0.00 31 1016.8
20260502194006 20 272 3.2 30.6 0.00 0.00 0.00 34 1016.9
20260502193509 20 207 22.5 30.6 0.00 0.00 0.00 32 1016.9
20260502193002 19 272 14.5 30.6 0.00 0.00 0.00 37 1017.0
20260502192458 18 297 9.7 19.3 0.00 0.00 0.00 35 1017.1
20260502191954 18 156 6.4 19.3 0.00 0.00 0.00 35 1017.1
20260502191717 18 114 6.4 22.5 0.00 0.00 0.00 33 1017.4
20260502190946 19 136 14.5 22.5 0.00 0.00 0.00 33 1017.5
20260502190442 19 136 8.0 19.3 0.00 0.00 0.00 34 1017.6
20260502185937 19 165 11.3 19.3 0.00 0.00 0.00 34 1017.7
20260502185436 19 146 9.7 19.3 0.00 0.00 0.00 33 1017.7
20260502184933 19 201 12.9 20.9 0.00 0.00 0.00 34 1017.8
20260502184432 19 196 14.5 20.9 0.00 0.00 0.00 34 1017.8
20260502183928 18 153 12.9 19.3 0.00 0.00 0.00 35 1017.7
20260502183427 18 192 9.7 19.3 0.00 0.00 0.00 36 1017.8
20260502182922 18 159 9.7 22.5 0.00 0.00 0.00 35 1017.9
20260502182421 18 159 11.3 27.4 0.00 0.00 0.00 35 1017.9
20260502181919 18 193 9.7 27.4 0.00 0.00 0.00 36 1018.0
20260502181419 18 157 20.9 27.4 0.00 0.00 0.00 36 1018.0
20260502180915 18 215 6.4 25.7 0.00 0.00 0.00 37 1018.1
20260502180644 18 172 12.9 25.7 0.00 0.00 0.00 36 1018.1
20260502164347 16 146 3.2 17.7 0.00 0.00 0.00 40 1019.1
20260502163845 15 138 8.0 16.1 0.00 0.00 0.00 41 1019.1
20260502163343 15 181 12.9 19.3 0.00 0.00 0.00 42 1019.1
20260502162839 15 143 14.5 19.3 0.00 0.00 0.00 42 1019.2
20260502162340 15 181 11.3 16.1 0.00 0.00 0.00 44 1019.1
20260502162115 15 158 9.7 16.1 0.00 0.00 0.00 43 1019.2
20260502161335 15 161 8.0 17.7 0.00 0.00 0.00 42 1019.4
20260502160831 16 127 9.7 17.7 0.00 0.00 0.00 42 1019.4
20260502160331 16 102 14.5 17.7 0.00 0.00 0.00 42 1019.4
20260502152323 13 98 4.8 8.0 0.00 0.00 0.00 47 1019.7
20260502151820 13 50 3.2 8.0 0.00 0.00 0.00 49 1019.7
20260502151319 12 133 3.2 9.7 0.00 0.00 0.00 50 1019.7
20260502150816 12 119 1.6 9.7 0.00 0.00 0.00 52 1019.8
20260502150312 11 13 1.6 6.4 0.00 0.00 0.00 56 1019.8
20260502150306 11 5 3.2 6.4 0.00 0.00 0.00 58 1019.8
20260502130213 6 319 4.8 11.3 0.00 0.00 0.00 78 1019.4
20260502123705 6 309 6.4 9.7 0.00 0.00 0.00 78 1019.4
20260502123200 6 329 6.4 9.7 0.00 0.00 0.00 78 1019.4
20260502122701 6 321 8.0 9.7 0.00 0.00 0.00 77 1019.5
20260502122650 6 319 4.8 11.3 0.00 0.00 0.00 77 1019.4
20260502121656 6 316 6.4 11.3 0.00 0.00 0.00 76 1019.4
20260502121407 6 325 6.4 9.7 0.00 0.00 0.00 76 1019.2
20260502120648 6 319 4.8 8.0 0.00 0.00 0.00 75 1019.4
20260502120147 6 290 3.2 11.3 0.00 0.00 0.00 75 1019.2
20260502115644 6 317 6.4 11.3 0.00 0.00 0.00 75 1019.4
20260502115143 6 308 6.4 11.3 0.00 0.00 0.00 75 1019.4
20260502114642 6 311 8.0 11.3 0.00 0.00 0.00 75 1019.4
20260502114133 6 307 8.0 11.3 0.00 0.00 0.00 76 1019.4
20260502113633 6 336 4.8 6.4 0.00 0.00 0.00 75 1019.4
20260502113132 7 339 3.2 6.4 0.00 0.00 0.00 76 1019.2
20260502112631 7 340 4.8 8.0 0.00 0.00 0.00 76 1019.1
20260502112131 7 323 4.8 8.0 0.00 0.00 0.00 76 1019.2
20260502111631 7 320 6.4 9.7 0.00 0.00 0.00 76 1019.2
20260502111133 7 296 6.4 11.3 0.00 0.00 0.00 76 1019.2
20260502110624 7 304 6.4 12.9 0.00 0.00 0.00 76 1019.2
20260502110123 7 284 11.3 12.9 0.00 0.00 0.00 77 1019.4
20260502105623 7 295 4.8 6.4 0.00 0.00 0.00 77 1019.2
20260502105121 7 301 3.2 8.0 0.00 0.00 0.00 77 1019.4
20260502104622 7 307 4.8 9.7 0.00 0.00 0.00 77 1019.2
20260502104117 7 316 6.4 11.3 0.00 0.00 0.00 77 1019.2
20260502103613 7 315 8.0 11.3 0.00 0.00 0.00 77 1019.4
20260502103112 6 304 8.0 11.3 0.00 0.00 0.00 75 1019.2
20260502102608 6 317 8.0 12.9 0.00 0.00 0.00 75 1019.4
20260502102106 6 303 9.7 12.9 0.00 0.00 0.00 76 1019.4
20260502102100 6 306 8.0 12.9 0.00 0.00 0.00 75 1019.4
20260502101058 6 298 9.7 12.9 0.00 0.00 0.00 75 1019.4
20260502100556 6 304 8.0 11.3 0.00 0.00 0.00 74 1019.1
20260502100332 6 309 8.0 11.3 0.00 0.00 0.00 74 1019.1
20260502091313 6 311 6.4 11.3 0.00 0.00 0.00 74 1019.0
20260502090551 6 287 8.0 11.3 0.00 0.00 0.00 74 1019.1
20260502090308 6 293 6.4 9.7 0.00 0.00 0.00 73 1019.0
20260502071454 6 271 9.7 14.5 0.00 0.00 0.00 75 1018.8
20260502070958 6 288 9.7 14.5 0.00 0.00 0.00 75 1018.8
20260502070714 6 286 9.7 16.1 0.00 0.00 0.00 74 1018.8
20260502065952 6 302 12.9 16.1 0.00 0.00 0.00 74 1018.7
20260502065711 6 297 12.9 14.5 0.00 0.00 0.00 73 1018.6
20260502064940 6 297 11.3 12.9 0.00 0.00 0.00 73 1018.6
20260502064439 6 303 11.3 12.9 0.00 0.00 0.00 72 1018.6
20260502063938 6 306 11.3 12.9 0.00 0.00 0.00 72 1018.5
20260502063434 6 311 8.0 12.9 0.00 0.00 0.00 72 1018.5
20260502062931 6 315 6.4 8.0 0.00 0.00 0.00 72 1018.5
20260502062914 6 311 6.4 11.3 0.00 0.00 0.00 72 1018.4
20260502062356 6 311 9.7 12.9 0.00 0.00 0.00 72 1018.4
20260502061411 7 305 11.3 12.9 0.00 0.00 0.00 71 1018.4
20260502060912 7 314 8.0 11.3 0.00 0.00 0.00 70 1018.4
20260502060628 7 293 6.4 8.0 0.00 0.00 0.00 69 1018.4
20260502055902 7 298 6.4 9.7 0.00 0.00 0.00 69 1018.4
20260502055413 7 298 6.4 9.7 0.00 0.00 0.00 68 1018.4
20260502054901 7 311 4.8 6.4 0.00 0.00 0.00 67 1018.2
20260502054358 7 325 3.2 4.8 0.00 0.00 0.00 66 1018.2
20260502054118 7 281 3.2 4.8 0.00 0.00 0.00 66 1018.2
20260502053354 8 273 3.2 6.4 0.00 0.00 0.00 65 1018.2
20260502052849 8 270 4.8 6.4 0.00 0.00 0.00 64 1018.2
20260502052349 8 263 4.8 6.4 0.00 0.00 0.00 65 1018.2
20260502051846 8 276 3.2 6.4 0.00 0.00 0.00 65 1018.2
20260502051605 8 311 4.8 6.4 0.00 0.00 0.00 65 1018.2
20260502050839 8 317 3.2 6.4 0.00 0.00 0.00 64 1018.1
20260502050338 8 288 1.6 4.8 0.00 0.00 0.00 64 1018.1
20260502045834 8 288 3.2 6.4 0.00 0.00 0.00 63 1018.1
20260502045328 9 306 4.8 6.4 0.00 0.00 0.00 63 1018.1
20260502044827 9 311 4.8 6.4 0.00 0.00 0.00 62 1018.0
20260502044325 9 336 3.2 6.4 0.00 0.00 0.00 62 1018.0
20260502043824 10 300 3.2 4.8 0.00 0.00 0.00 61 1018.1
20260502043321 10 305 3.2 6.4 0.00 0.00 0.00 60 1018.0
20260502042817 10 297 3.2 6.4 0.00 0.00 0.00 60 1018.0
20260502042312 10 288 4.8 6.4 0.00 0.00 0.00 58 1018.0
20260502041808 10 284 4.8 6.4 0.00 0.00 0.00 57 1017.9
20260502041306 11 344 3.2 3.2 0.00 0.00 0.00 57 1017.9
20260502040807 11 344 1.6 4.8 0.00 0.00 0.00 56 1017.9
20260502040305 11 344 1.6 6.4 0.00 0.00 0.00 57 1017.9
20260502035812 11 344 4.8 8.0 0.00 0.00 0.00 57 1017.9
20260502035310 11 0 6.4 12.9 0.00 0.00 0.00 57 1017.8
20260502035306 11 346 4.8 12.9 0.00 0.00 0.00 58 1017.9
20260502034300 11 0 9.7 14.5 0.00 0.00 0.00 57 1017.7